STARLINK-36950, 67992

Orbit data source: Space-Track

STARLINK-36950, 67992 is a payload satellite owned by SpaceX/Seattle (US) in LEO that was launched on Fri, 27 Feb 2026 UTC via an FALCON 9 launch vehicle from the Air Force Eastern Test Range (AFETR). Payload-class satellites include a variety of spacecraft equipped with specific instruments for various scientific and technological missions. These include communications satellites like Starlink; space stations such as the ISS; scientific satellites like the Hubble; Earth observation satellites from companies like Planet Labs, Umbra, and HawkEye 360; GPS; miniature CubeSats for education and research; and military/defense satellites.

Loading next visibility...
Identifier
67992, 2026-039G
Orbit
LEO
Country
Flag of USUS
Related business
Manufacturer
SpaceX/Seattle
Mission
Operational Commercial Communications
Bus & Motor
STARLINK V2MO, Unknown motor
Mass
575 kg wet, ~530 kg dry
Launch date (UTC)
2026-02-27 (2 months ago)
Launch vehicle
FALCON 9
Launch site
Air Force Eastern Test Range (AFETR)
Object type
Payload
Rocket body
Debris
Shape & HBR
Box + 2 Pan, 17.7 m
Radar Cross Section
36.964 m²

Expand to show TLE details & history
Last TLE update: 7 hours ago

TLE from 7 hours ago
0 STARLINK-36950
1 67992U 26039G   26119.30750217  .00016370  00000-0  60290-3 0  9994
2 67992  43.0036 123.1713 0000436 276.3901  83.6901 15.27589856  9440
Epoch: 2026-04-29T07:22Z
TLE epoch observation values (Epoch: 2026-04-29T07:22:48.187Z)
Latitude
-0.00002°
Longitude
155.20016°
Altitude
482.763 km
Speed
7.626 km/s
True Right ascension
08h 12m 41s
True Declination
0° 00' 00"
Sunlit
Object was in daylight at epoch
Visualization orbit readout
Latitude
Unknown
Longitude
Unknown
Altitude
Unknown
Speed
Unknown
Apparent Right ascension
Unknown
Apparent Declination
Unknown
Sunlit
N/A
Visualization observer readout
Local Sidereal Time
21:49:48
Azimuth
Unknown
Elevation
Unknown
Doppler factor
Unknown
Orbital elements
Apogee altitude
485.263 km
Perigee altitude
484.665 km
Semi-major axis
6,863.101 km
Eccentricity
0.00004
Inclination
43.0036°
RAAN
123.1713°
Arg. of periapsis
276.3901°
True anomaly
83.69507°
Mean anomaly
83.6901°
Eccentric anomaly
83.69258°
Mean motion
3.81736 °/min
Orbital period
94.31 mins
BSTAR
0.0006029
Loading maneuver chart data...
Computing Atmospheric mass density...
Loading historical data...
Loading historical data...
Loading historical data...
Loading historical data...
Loading historical data...
Loading historical data...
Loading historical data...

Documentation

Showing up to 5 results
|